| time (UTC) | temp C | wind direction | speed KPH | gust KPH | rain 1hr cm | rain 24hr cm | rain mn cm | humidity % | barometer mb |
| 20260903133426 | 16 | 223 | 0.0 | 0.0 | 0.00 | 0.00 | 0.00 | 82 | 1014.6 |
| 20260903132919 | 16 | 223 | 0.0 | 0.0 | 0.00 | 0.00 | 0.00 | 82 | 1014.6 |
| 20260903132419 | 16 | 223 | 0.0 | 0.0 | 0.00 | 0.00 | 0.00 | 82 | 1014.6 |
| 20260903131920 | 16 | 223 | 0.0 | 0.0 | 0.00 | 0.00 | 0.00 | 81 | 1014.6 |
| 20260903131646 | 16 | 223 | 0.0 | 0.0 | 0.00 | 0.00 | 0.00 | 81 | 1014.7 |
| 20260903130913 | 16 | 223 | 0.0 | 0.0 | 0.00 | 0.00 | 0.00 | 81 | 1014.6 |
| 20260903130414 | 16 | 223 | 0.0 | 0.0 | 0.00 | 0.00 | 0.00 | 81 | 1014.7 |
| 20260903125910 | 16 | 223 | 0.0 | 0.0 | 0.00 | 0.00 | 0.00 | 81 | 1014.7 |
| 20260903125410 | 16 | 223 | 0.0 | 0.0 | 0.00 | 0.00 | 0.00 | 81 | 1014.6 |
| 20260903125142 | 16 | 223 | 0.0 | 0.0 | 0.00 | 0.00 | 0.00 | 81 | 1014.7 |
| 20260903124407 | 16 | 223 | 0.0 | 0.0 | 0.00 | 0.00 | 0.00 | 81 | 1014.7 |
| 20260903123908 | 16 | 223 | 0.0 | 0.0 | 0.00 | 0.00 | 0.00 | 81 | 1014.7 |
| 20260903123408 | 16 | 223 | 0.0 | 0.0 | 0.00 | 0.00 | 0.00 | 81 | 1014.7 |
| 20260903122908 | 16 | 223 | 0.0 | 0.0 | 0.00 | 0.00 | 0.00 | 81 | 1014.6 |
| 20260903122405 | 16 | 223 | 0.0 | 0.0 | 0.00 | 0.00 | 0.00 | 81 | 1014.6 |
| 20260903122135 | 16 | 223 | 0.0 | 0.0 | 0.00 | 0.00 | 0.00 | 80 | 1014.7 |
| 20260903121405 | 16 | 223 | 0.0 | 0.0 | 0.00 | 0.00 | 0.00 | 80 | 1014.6 |
| 20260903120915 | 17 | 223 | 0.0 | 0.0 | 0.00 | 0.00 | 0.00 | 80 | 1014.7 |
| 20260903120359 | 17 | 223 | 0.0 | 0.0 | 0.00 | 0.00 | 0.00 | 80 | 1014.7 |
| 20260903115900 | 17 | 223 | 0.0 | 0.0 | 0.00 | 0.00 | 0.00 | 80 | 1014.7 |
| 20260903115357 | 17 | 223 | 0.0 | 0.0 | 0.00 | 0.00 | 0.00 | 80 | 1014.7 |
| 20260903114627 | 17 | 223 | 0.0 | 0.0 | 0.00 | 0.00 | 0.00 | 80 | 1014.8 |
| 20260903114125 | 17 | 223 | 0.0 | 0.0 | 0.00 | 0.00 | 0.00 | 79 | 1014.8 |
| 20260903113353 | 17 | 223 | 0.0 | 0.0 | 0.00 | 0.00 | 0.00 | 79 | 1014.9 |
| 20260903113136 | 17 | 223 | 0.0 | 0.0 | 0.00 | 0.00 | 0.00 | 79 | 1014.9 |
| 20260903112349 | 17 | 223 | 0.0 | 0.0 | 0.00 | 0.00 | 0.00 | 79 | 1014.8 |
| 20260903111849 | 17 | 223 | 0.0 | 0.0 | 0.00 | 0.00 | 0.00 | 78 | 1014.8 |
| 20260903111348 | 17 | 223 | 0.0 | 0.0 | 0.00 | 0.00 | 0.00 | 78 | 1014.9 |
| 20260903110854 | 17 | 223 | 0.0 | 0.0 | 0.00 | 0.00 | 0.00 | 78 | 1014.9 |
| 20260903110339 | 17 | 223 | 0.0 | 1.6 | 0.00 | 0.00 | 0.00 | 78 | 1015.0 |
| 20260903105840 | 17 | 223 | 0.0 | 1.6 | 0.00 | 0.00 | 0.00 | 78 | 1014.9 |
| 20260903105336 | 17 | 223 | 0.0 | 4.8 | 0.00 | 0.00 | 0.00 | 78 | 1015.0 |
| 20260903105108 | 17 | 223 | 0.0 | 4.8 | 0.00 | 0.00 | 0.00 | 78 | 1015.1 |
| 20260903104336 | 17 | 223 | 0.0 | 1.6 | 0.00 | 0.00 | 0.00 | 78 | 1015.0 |
| 20260903103833 | 17 | 223 | 0.0 | 3.2 | 0.00 | 0.00 | 0.00 | 78 | 1015.0 |
| 20260903102833 | 17 | 223 | 0.0 | 1.6 | 0.00 | 0.00 | 0.00 | 77 | 1014.9 |
| 20260903102606 | 17 | 223 | 0.0 | 3.2 | 0.00 | 0.00 | 0.00 | 77 | 1015.1 |
| 20260903101835 | 17 | 223 | 0.0 | 3.2 | 0.00 | 0.00 | 0.00 | 77 | 1015.1 |
| 20260903101335 | 17 | 223 | 0.0 | 3.2 | 0.00 | 0.00 | 0.00 | 77 | 1015.1 |
| 20260903100834 | 17 | 223 | 1.6 | 3.2 | 0.00 | 0.00 | 0.00 | 77 | 1015.1 |
| 20260903100332 | 17 | 223 | 0.0 | 3.2 | 0.00 | 0.00 | 0.00 | 77 | 1015.1 |
| 20260903095832 | 17 | 223 | 0.0 | 1.6 | 0.00 | 0.00 | 0.00 | 76 | 1015.1 |
| 20260903095333 | 17 | 223 | 0.0 | 3.2 | 0.00 | 0.00 | 0.00 | 76 | 1015.1 |
| 20260903094833 | 18 | 223 | 0.0 | 3.2 | 0.00 | 0.00 | 0.00 | 76 | 1015.0 |
| 20260903094332 | 18 | 223 | 0.0 | 4.8 | 0.00 | 0.00 | 0.00 | 76 | 1015.2 |
| 20260903093833 | 18 | 223 | 1.6 | 4.8 | 0.00 | 0.00 | 0.00 | 76 | 1015.2 |
| 20260903093332 | 18 | 223 | 1.6 | 4.8 | 0.00 | 0.00 | 0.00 | 75 | 1015.2 |
| 20260903092826 | 18 | 223 | 1.6 | 4.8 | 0.00 | 0.00 | 0.00 | 75 | 1015.2 |
| 20260903092324 | 18 | 223 | 1.6 | 4.8 | 0.00 | 0.00 | 0.00 | 75 | 1015.3 |
| 20260903091825 | 18 | 223 | 1.6 | 4.8 | 0.00 | 0.00 | 0.00 | 74 | 1015.4 |
| 20260903091323 | 18 | 223 | 1.6 | 6.4 | 0.00 | 0.00 | 0.00 | 74 | 1015.4 |
| 20260903090825 | 18 | 223 | 1.6 | 6.4 | 0.00 | 0.00 | 0.00 | 74 | 1015.5 |
| 20260903090554 | 18 | 223 | 1.6 | 4.8 | 0.00 | 0.00 | 0.00 | 73 | 1015.5 |
| 20260903090052 | 18 | 223 | 1.6 | 4.8 | 0.00 | 0.00 | 0.00 | 73 | 1015.5 |
| 20260903085323 | 18 | 223 | 1.6 | 6.4 | 0.00 | 0.00 | 0.00 | 73 | 1015.6 |
| 20260903085054 | 18 | 223 | 1.6 | 6.4 | 0.00 | 0.00 | 0.00 | 73 | 1015.6 |
| 20260903084836 | 18 | 223 | 1.6 | 6.4 | 0.00 | 0.00 | 0.00 | 73 | 1015.6 |
| 20260903084322 | 18 | 223 | 3.2 | 4.8 | 0.00 | 0.00 | 0.00 | 73 | 1015.6 |
| 20260903083821 | 18 | 223 | 3.2 | 4.8 | 0.00 | 0.00 | 0.00 | 73 | 1015.7 |
| 20260903083550 | 18 | 223 | 1.6 | 4.8 | 0.00 | 0.00 | 0.00 | 73 | 1015.7 |
| 20260903083335 | 18 | 223 | 1.6 | 4.8 | 0.00 | 0.00 | 0.00 | 73 | 1015.7 |
| 20260903083051 | 18 | 223 | 3.2 | 6.4 | 0.00 | 0.00 | 0.00 | 73 | 1015.7 |
| 20260903082313 | 18 | 223 | 3.2 | 6.4 | 0.00 | 0.00 | 0.00 | 73 | 1015.7 |
| 20260903081813 | 18 | 223 | 1.6 | 6.4 | 0.00 | 0.00 | 0.00 | 73 | 1015.8 |
| 20260903081314 | 18 | 223 | 3.2 | 8.0 | 0.00 | 0.00 | 0.00 | 73 | 1015.8 |
| 20260903080812 | 18 | 223 | 3.2 | 8.0 | 0.00 | 0.00 | 0.00 | 73 | 1015.8 |
| 20260903075812 | 18 | 223 | 3.2 | 6.4 | 0.00 | 0.00 | 0.00 | 72 | 1015.7 |
| 20260903075312 | 18 | 223 | 3.2 | 6.4 | 0.00 | 0.00 | 0.00 | 72 | 1015.7 |
| 20260903074809 | 18 | 223 | 3.2 | 4.8 | 0.00 | 0.00 | 0.00 | 72 | 1015.7 |
| 20260903074541 | 18 | 223 | 3.2 | 4.8 | 0.00 | 0.00 | 0.00 | 72 | 1015.7 |
| 20260903074039 | 18 | 223 | 3.2 | 4.8 | 0.00 | 0.00 | 0.00 | 72 | 1015.7 |
| 20260903072805 | 18 | 223 | 1.6 | 4.8 | 0.00 | 0.00 | 0.00 | 72 | 1015.7 |
| 20260903072535 | 18 | 223 | 3.2 | 4.8 | 0.00 | 0.00 | 0.00 | 72 | 1015.7 |
| 20260903071803 | 18 | 223 | 1.6 | 4.8 | 0.00 | 0.00 | 0.00 | 72 | 1015.7 |
| 20260903071301 | 18 | 223 | 1.6 | 4.8 | 0.00 | 0.00 | 0.00 | 72 | 1015.6 |
| 20260903070802 | 18 | 223 | 1.6 | 4.8 | 0.00 | 0.00 | 0.00 | 72 | 1015.6 |
| 20260903070303 | 18 | 223 | 0.0 | 3.2 | 0.00 | 0.00 | 0.00 | 72 | 1015.7 |
| 20260903070030 | 18 | 223 | 0.0 | 4.8 | 0.00 | 0.00 | 0.00 | 72 | 1015.7 |
| 20260903065257 | 18 | 223 | 1.6 | 4.8 | 0.00 | 0.00 | 0.00 | 72 | 1015.7 |
| 20260903064758 | 18 | 223 | 1.6 | 4.8 | 0.00 | 0.00 | 0.00 | 72 | 1015.7 |
| 20260903064254 | 19 | 223 | 1.6 | 4.8 | 0.00 | 0.00 | 0.00 | 72 | 1015.7 |
| 20260903063754 | 18 | 223 | 1.6 | 4.8 | 0.00 | 0.00 | 0.00 | 72 | 1015.7 |
| 20260903063255 | 18 | 223 | 1.6 | 4.8 | 0.00 | 0.00 | 0.00 | 72 | 1015.7 |
| 20260903062756 | 18 | 223 | 0.0 | 4.8 | 0.00 | 0.00 | 0.00 | 72 | 1015.6 |
| 20260903062253 | 18 | 223 | 0.0 | 4.8 | 0.00 | 0.00 | 0.00 | 72 | 1015.7 |
| 20260903061753 | 18 | 223 | 1.6 | 3.2 | 0.00 | 0.00 | 0.00 | 73 | 1015.7 |
| 20260903061246 | 18 | 223 | 1.6 | 3.2 | 0.00 | 0.00 | 0.00 | 74 | 1015.7 |
| 20260903060747 | 18 | 223 | 0.0 | 1.6 | 0.00 | 0.00 | 0.00 | 72 | 1015.7 |
| 20260903060246 | 18 | 223 | 0.0 | 1.6 | 0.00 | 0.00 | 0.00 | 73 | 1015.7 |
| 20260903055746 | 19 | 223 | 0.0 | 3.2 | 0.00 | 0.00 | 0.00 | 73 | 1015.7 |
| 20260903055245 | 19 | 223 | 0.0 | 3.2 | 0.00 | 0.00 | 0.00 | 73 | 1015.7 |
| 20260903054745 | 19 | 223 | 0.0 | 1.6 | 0.00 | 0.00 | 0.00 | 72 | 1015.7 |
| 20260903054245 | 19 | 223 | 1.6 | 8.0 | 0.00 | 0.00 | 0.00 | 73 | 1015.7 |
| 20260903054014 | 19 | 223 | 1.6 | 8.0 | 0.00 | 0.00 | 0.00 | 73 | 1015.6 |
| 20260903053240 | 19 | 223 | 0.0 | 3.2 | 0.00 | 0.00 | 0.00 | 72 | 1015.7 |
| 20260903052739 | 19 | 223 | 1.6 | 6.4 | 0.00 | 0.00 | 0.00 | 72 | 1015.7 |
| 20260903052507 | 20 | 223 | 3.2 | 6.4 | 0.00 | 0.00 | 0.00 | 73 | 1015.6 |
| 20260903051736 | 20 | 223 | 4.8 | 9.7 | 0.00 | 0.00 | 0.00 | 72 | 1015.6 |
| 20260903051510 | 20 | 223 | 4.8 | 9.7 | 0.00 | 0.00 | 0.00 | 72 | 1015.5 |
| 20260903051035 | 20 | 223 | 6.4 | 12.9 | 0.00 | 0.00 | 0.00 | 71 | 1015.4 |
| 20260903050516 | 20 | 223 | 6.4 | 14.5 | 0.00 | 0.00 | 0.00 | 71 | 1015.3 |
| 20260903050426 | 20 | 223 | 8.0 | 14.5 | 0.00 | 0.00 | 0.00 | 71 | 1015.4 |
| 20260903050123 | 20 | 217 | 8.0 | 16.1 | 0.00 | 0.00 | 0.00 | 71 | 1015.3 |
| 20260903045845 | 20 | 223 | 8.0 | 14.5 | 0.00 | 0.00 | 0.00 | 71 | 1015.3 |
| 20260903045748 | 20 | 219 | 8.0 | 14.5 | 0.00 | 0.00 | 0.00 | 71 | 1015.4 |
| 20260903043507 | 20 | 217 | 8.0 | 17.7 | 0.00 | 0.00 | 0.00 | 71 | 1015.3 |
| 20260903043247 | 20 | 217 | 8.0 | 17.7 | 0.00 | 0.00 | 0.00 | 71 | 1015.3 |
| 20260903043008 | 20 | 219 | 8.0 | 17.7 | 0.00 | 0.00 | 0.00 | 70 | 1015.2 |
| 20260903042749 | 20 | 219 | 8.0 | 17.7 | 0.00 | 0.00 | 0.00 | 70 | 1015.2 |
| 20260903042249 | 21 | 225 | 8.0 | 16.1 | 0.00 | 0.00 | 0.00 | 70 | 1015.1 |
| 20260903041735 | 21 | 218 | 8.0 | 16.1 | 0.00 | 0.00 | 0.00 | 70 | 1015.1 |
| 20260903041507 | 21 | 228 | 9.7 | 16.1 | 0.00 | 0.00 | 0.00 | 69 | 1015.1 |
| 20260903040733 | 21 | 227 | 9.7 | 14.5 | 0.00 | 0.00 | 0.00 | 69 | 1015.1 |
| 20260903040708 | 21 | 218 | 6.4 | 12.9 | 0.00 | 0.00 | 0.00 | 66 | 1014.8 |
| 20260903040621 | 21 | 215 | 8.0 | 14.5 | 0.00 | 0.00 | 0.00 | 68 | 1015.0 |
| 20260903040512 | 21 | 219 | 8.0 | 14.5 | 0.00 | 0.00 | 0.00 | 68 | 1014.9 |
| 20260903040417 | 21 | 216 | 8.0 | 14.5 | 0.00 | 0.00 | 0.00 | 67 | 1014.9 |
| 20260903034500 | 21 | 217 | 8.0 | 16.1 | 0.00 | 0.00 | 0.00 | 65 | 1014.7 |
| 20260903033729 | 22 | 218 | 9.7 | 16.1 | 0.00 | 0.00 | 0.00 | 65 | 1014.7 |
| 20260903033500 | 22 | 222 | 9.7 | 16.1 | 0.00 | 0.00 | 0.00 | 64 | 1014.5 |
| 20260903032955 | 22 | 221 | 9.7 | 17.7 | 0.00 | 0.00 | 0.00 | 64 | 1014.4 |
| 20260903032225 | 22 | 222 | 8.0 | 17.7 | 0.00 | 0.00 | 0.00 | 63 | 1014.4 |
| 20260903031725 | 22 | 223 | 9.7 | 14.5 | 0.00 | 0.00 | 0.00 | 62 | 1014.4 |
| 20260903031226 | 22 | 223 | 9.7 | 16.1 | 0.00 | 0.00 | 0.00 | 62 | 1014.3 |
| 20260903030721 | 22 | 219 | 11.3 | 19.3 | 0.00 | 0.00 | 0.00 | 61 | 1014.3 |
| 20260903030222 | 22 | 223 | 11.3 | 19.3 | 0.00 | 0.00 | 0.00 | 60 | 1014.3 |
| 20260903025721 | 23 | 218 | 11.3 | 19.3 | 0.00 | 0.00 | 0.00 | 59 | 1014.3 |
| 20260903025452 | 23 | 225 | 11.3 | 19.3 | 0.00 | 0.00 | 0.00 | 58 | 1014.2 |
| 20260903024717 | 23 | 212 | 12.9 | 19.3 | 0.00 | 0.00 | 0.00 | 56 | 1014.2 |
| 20260903024217 | 23 | 224 | 12.9 | 22.5 | 0.00 | 0.00 | 0.00 | 55 | 1014.1 |
| 20260903023948 | 23 | 225 | 12.9 | 22.5 | 0.00 | 0.00 | 0.00 | 54 | 1014.0 |
| 20260903023759 | 23 | 225 | 12.9 | 22.5 | 0.00 | 0.00 | 0.00 | 54 | 1014.0 |
| 20260903023217 | 24 | 235 | 14.5 | 22.5 | 0.00 | 0.00 | 0.00 | 53 | 1014.0 |
| 20260903022943 | 24 | 224 | 14.5 | 24.1 | 0.00 | 0.00 | 0.00 | 52 | 1013.9 |
| 20260903022213 | 24 | 213 | 12.9 | 24.1 | 0.00 | 0.00 | 0.00 | 50 | 1013.9 |
| 20260903021944 | 25 | 227 | 12.9 | 22.5 | 0.00 | 0.00 | 0.00 | 48 | 1013.9 |
| 20260903021213 | 25 | 230 | 14.5 | 22.5 | 0.00 | 0.00 | 0.00 | 47 | 1013.9 |
| 20260903020712 | 25 | 225 | 12.9 | 20.9 | 0.00 | 0.00 | 0.00 | 45 | 1013.9 |
| 20260903020444 | 25 | 238 | 11.3 | 19.3 | 0.00 | 0.00 | 0.00 | 43 | 1013.9 |
| 20260903015712 | 25 | 215 | 12.9 | 24.1 | 0.00 | 0.00 | 0.00 | 42 | 1013.8 |
| 20260903015212 | 25 | 232 | 14.5 | 24.1 | 0.00 | 0.00 | 0.00 | 41 | 1013.8 |
| 20260903014712 | 26 | 238 | 14.5 | 25.7 | 0.00 | 0.00 | 0.00 | 39 | 1013.8 |
| 20260903014212 | 26 | 214 | 14.5 | 25.7 | 0.00 | 0.00 | 0.00 | 39 | 1013.8 |
| 20260903013713 | 26 | 223 | 12.9 | 22.5 | 0.00 | 0.00 | 0.00 | 38 | 1013.7 |
| 20260903013213 | 26 | 219 | 11.3 | 19.3 | 0.00 | 0.00 | 0.00 | 38 | 1013.7 |
| 20260903012940 | 26 | 226 | 11.3 | 19.3 | 0.00 | 0.00 | 0.00 | 37 | 1013.8 |
| 20260903012209 | 26 | 220 | 11.3 | 24.1 | 0.00 | 0.00 | 0.00 | 38 | 1013.7 |
| 20260903011709 | 27 | 201 | 12.9 | 24.1 | 0.00 | 0.00 | 0.00 | 39 | 1013.7 |
| 20260903011210 | 27 | 217 | 14.5 | 25.7 | 0.00 | 0.00 | 0.00 | 40 | 1013.7 |
| 20260903010935 | 27 | 221 | 14.5 | 25.7 | 0.00 | 0.00 | 0.00 | 40 | 1013.7 |
| 20260903010205 | 27 | 217 | 16.1 | 24.1 | 0.00 | 0.00 | 0.00 | 41 | 1013.7 |
| 20260903005936 | 27 | 224 | 12.9 | 24.1 | 0.00 | 0.00 | 0.00 | 40 | 1013.6 |
| 20260903004701 | 28 | 232 | 12.9 | 25.7 | 0.00 | 0.00 | 0.00 | 41 | 1013.6 |
| 20260903004201 | 28 | 219 | 14.5 | 22.5 | 0.00 | 0.00 | 0.00 | 41 | 1013.6 |
| 20260903003932 | 28 | 224 | 12.9 | 25.7 | 0.00 | 0.00 | 0.00 | 41 | 1013.5 |
| 20260903003202 | 28 | 214 | 11.3 | 25.7 | 0.00 | 0.00 | 0.00 | 40 | 1013.6 |
| 20260903002656 | 28 | 236 | 12.9 | 20.9 | 0.00 | 0.00 | 0.00 | 40 | 1013.5 |
| 20260903002158 | 28 | 235 | 14.5 | 25.7 | 0.00 | 0.00 | 0.00 | 39 | 1013.6 |
| 20260903001710 | 28 | 221 | 16.1 | 25.7 | 0.00 | 0.00 | 0.00 | 39 | 1013.5 |
| 20260903001211 | 28 | 227 | 14.5 | 22.5 | 0.00 | 0.00 | 0.00 | 38 | 1013.5 |
| 20260903000652 | 28 | 216 | 14.5 | 25.7 | 0.00 | 0.00 | 0.00 | 38 | 1013.6 |
| 20260903000154 | 29 | 242 | 12.9 | 25.7 | 0.00 | 0.00 | 0.00 | 37 | 1013.6 |
| 20260902235654 | 29 | 222 | 11.3 | 22.5 | 0.00 | 0.00 | 0.00 | 40 | 1013.6 |
| 20260902234649 | 30 | 213 | 11.3 | 24.1 | 0.00 | 0.00 | 0.00 | 39 | 1013.7 |
| 20260902234420 | 30 | 219 | 11.3 | 22.5 | 0.00 | 0.00 | 0.00 | 39 | 1013.7 |
| 20260902233718 | 30 | 253 | 12.9 | 22.5 | 0.00 | 0.00 | 0.00 | 40 | 1013.7 |
| 20260902233150 | 30 | 220 | 12.9 | 19.3 | 0.00 | 0.00 | 0.00 | 38 | 1013.7 |
| 20260902232916 | 30 | 266 | 11.3 | 17.7 | 0.00 | 0.00 | 0.00 | 38 | 1013.7 |
| 20260902232416 | 30 | 229 | 9.7 | 24.1 | 0.00 | 0.00 | 0.00 | 37 | 1013.7 |
| 20260902231917 | 30 | 202 | 11.3 | 24.1 | 0.00 | 0.00 | 0.00 | 36 | 1013.8 |
| 20260902231145 | 30 | 221 | 11.3 | 20.9 | 0.00 | 0.00 | 0.00 | 37 | 1013.8 |
| 20260902230641 | 30 | 221 | 12.9 | 24.1 | 0.00 | 0.00 | 0.00 | 36 | 1013.8 |
| 20260902230412 | 30 | 215 | 12.9 | 24.1 | 0.00 | 0.00 | 0.00 | 36 | 1013.9 |
| 20260902225641 | 31 | 221 | 11.3 | 24.1 | 0.00 | 0.00 | 0.00 | 33 | 1013.9 |
| 20260902225141 | 31 | 218 | 11.3 | 24.1 | 0.00 | 0.00 | 0.00 | 32 | 1013.9 |
| 20260902224138 | 31 | 201 | 9.7 | 19.3 | 0.00 | 0.00 | 0.00 | 30 | 1014.0 |
| 20260902223638 | 31 | 217 | 9.7 | 20.9 | 0.00 | 0.00 | 0.00 | 29 | 1014.0 |
| 20260902223408 | 31 | 225 | 11.3 | 22.5 | 0.00 | 0.00 | 0.00 | 29 | 1014.1 |
| 20260902222632 | 31 | 221 | 11.3 | 22.5 | 0.00 | 0.00 | 0.00 | 30 | 1014.2 |
| 20260902222133 | 31 | 223 | 11.3 | 20.9 | 0.00 | 0.00 | 0.00 | 27 | 1014.3 |
| 20260902221633 | 31 | 217 | 9.7 | 20.9 | 0.00 | 0.00 | 0.00 | 29 | 1014.3 |
| 20260902221133 | 31 | 219 | 11.3 | 19.3 | 0.00 | 0.00 | 0.00 | 30 | 1014.4 |
| 20260902220628 | 31 | 215 | 11.3 | 22.5 | 0.00 | 0.00 | 0.00 | 29 | 1014.4 |
| 20260902220129 | 31 | 202 | 11.3 | 22.5 | 0.00 | 0.00 | 0.00 | 28 | 1014.5 |
| 20260902215901 | 31 | 248 | 9.7 | 20.9 | 0.00 | 0.00 | 0.00 | 28 | 1014.5 |
| 20260902215635 | 31 | 248 | 9.7 | 20.9 | 0.00 | 0.00 | 0.00 | 28 | 1014.5 |
| 20260902215147 | 30 | 224 | 9.7 | 20.9 | 0.00 | 0.00 | 0.00 | 28 | 1014.5 |
| 20260902214625 | 31 | 226 | 9.7 | 20.9 | 0.00 | 0.00 | 0.00 | 28 | 1014.6 |
| 20260902214125 | 31 | 209 | 9.7 | 17.7 | 0.00 | 0.00 | 0.00 | 29 | 1014.6 |
| 20260902213625 | 31 | 220 | 9.7 | 17.7 | 0.00 | 0.00 | 0.00 | 28 | 1014.6 |
| 20260902213125 | 31 | 215 | 8.0 | 22.5 | 0.00 | 0.00 | 0.00 | 29 | 1014.6 |
| 20260902212620 | 31 | 229 | 8.0 | 22.5 | 0.00 | 0.00 | 0.00 | 29 | 1014.7 |
| 20260902212121 | 31 | 229 | 9.7 | 19.3 | 0.00 | 0.00 | 0.00 | 30 | 1014.7 |
| 20260902211852 | 30 | 201 | 9.7 | 17.7 | 0.00 | 0.00 | 0.00 | 29 | 1014.8 |
| 20260902211122 | 30 | 223 | 6.4 | 17.7 | 0.00 | 0.00 | 0.00 | 31 | 1014.9 |
| 20260902210618 | 30 | 225 | 8.0 | 17.7 | 0.00 | 0.00 | 0.00 | 31 | 1014.9 |
| 20260902210117 | 30 | 237 | 11.3 | 20.9 | 0.00 | 0.00 | 0.00 | 33 | 1015.0 |
| 20260902205848 | 30 | 221 | 9.7 | 20.9 | 0.00 | 0.00 | 0.00 | 33 | 1015.1 |
| 20260902205118 | 30 | 227 | 8.0 | 17.7 | 0.00 | 0.00 | 0.00 | 33 | 1015.2 |
| 20260902204612 | 30 | 238 | 8.0 | 16.1 | 0.00 | 0.00 | 0.00 | 35 | 1015.2 |
| 20260902203613 | 30 | 257 | 8.0 | 16.1 | 0.00 | 0.00 | 0.00 | 34 | 1015.3 |
| 20260902203114 | 30 | 221 | 8.0 | 16.1 | 0.00 | 0.00 | 0.00 | 34 | 1015.2 |
| 20260902202839 | 30 | 202 | 6.4 | 16.1 | 0.00 | 0.00 | 0.00 | 35 | 1015.3 |
| 20260902202109 | 30 | 223 | 8.0 | 17.7 | 0.00 | 0.00 | 0.00 | 36 | 1015.3 |
| 20260902201609 | 30 | 254 | 8.0 | 17.7 | 0.00 | 0.00 | 0.00 | 37 | 1015.4 |
| 20260902201109 | 30 | 236 | 4.8 | 12.9 | 0.00 | 0.00 | 0.00 | 37 | 1015.5 |
| 20260902200605 | 30 | 236 | 6.4 | 12.9 | 0.00 | 0.00 | 0.00 | 37 | 1015.6 |
| 20260902200106 | 30 | 229 | 6.4 | 14.5 | 0.00 | 0.00 | 0.00 | 37 | 1015.6 |
| 20260902195606 | 29 | 213 | 8.0 | 16.1 | 0.00 | 0.00 | 0.00 | 33 | 1015.7 |
| 20260902195106 | 28 | 223 | 6.4 | 17.7 | 0.00 | 0.00 | 0.00 | 34 | 1015.7 |
| 20260902194600 | 28 | 224 | 8.0 | 17.7 | 0.00 | 0.00 | 0.00 | 37 | 1015.8 |
| 20260902194101 | 28 | 220 | 8.0 | 14.5 | 0.00 | 0.00 | 0.00 | 36 | 1015.8 |
| 20260902193601 | 28 | 220 | 8.0 | 14.5 | 0.00 | 0.00 | 0.00 | 35 | 1015.9 |
| 20260902193101 | 28 | 255 | 8.0 | 16.1 | 0.00 | 0.00 | 0.00 | 36 | 1015.9 |
| 20260902192556 | 28 | 259 | 8.0 | 19.3 | 0.00 | 0.00 | 0.00 | 38 | 1016.0 |
| 20260902192057 | 28 | 257 | 8.0 | 19.3 | 0.00 | 0.00 | 0.00 | 36 | 1016.1 |
| 20260902191557 | 28 | 221 | 6.4 | 16.1 | 0.00 | 0.00 | 0.00 | 38 | 1016.2 |
| 20260902191057 | 27 | 239 | 6.4 | 11.3 | 0.00 | 0.00 | 0.00 | 39 | 1016.2 |
| 20260902190553 | 27 | 221 | 8.0 | 16.1 | 0.00 | 0.00 | 0.00 | 37 | 1016.3 |
| 20260902190106 | 27 | 221 | 9.7 | 17.7 | 0.00 | 0.00 | 0.00 | 38 | 1016.3 |
| 20260902185053 | 28 | 237 | 4.8 | 14.5 | 0.00 | 0.00 | 0.00 | 39 | 1016.3 |
| 20260902184552 | 27 | 241 | 4.8 | 11.3 | 0.00 | 0.00 | 0.00 | 39 | 1016.3 |
| 20260902184049 | 27 | 248 | 6.4 | 11.3 | 0.00 | 0.00 | 0.00 | 40 | 1016.4 |
| 20260902183820 | 27 | 248 | 6.4 | 11.3 | 0.00 | 0.00 | 0.00 | 40 | 1016.5 |
| 20260902183050 | 27 | 244 | 4.8 | 11.3 | 0.00 | 0.00 | 0.00 | 39 | 1016.6 |
| 20260902182815 | 27 | 240 | 4.8 | 12.9 | 0.00 | 0.00 | 0.00 | 41 | 1016.8 |
| 20260902182045 | 26 | 240 | 4.8 | 12.9 | 0.00 | 0.00 | 0.00 | 43 | 1016.6 |
| 20260902181545 | 26 | 234 | 4.8 | 11.3 | 0.00 | 0.00 | 0.00 | 42 | 1016.6 |
| 20260902181046 | 26 | 234 | 4.8 | 11.3 | 0.00 | 0.00 | 0.00 | 43 | 1016.8 |
| 20260902180812 | 25 | 236 | 4.8 | 9.7 | 0.00 | 0.00 | 0.00 | 44 | 1016.8 |
| 20260902180042 | 25 | 235 | 4.8 | 11.3 | 0.00 | 0.00 | 0.00 | 43 | 1016.8 |
| 20260902175541 | 25 | 235 | 4.8 | 11.3 | 0.00 | 0.00 | 0.00 | 46 | 1016.9 |
| 20260902174537 | 25 | 227 | 3.2 | 9.7 | 0.00 | 0.00 | 0.00 | 49 | 1016.9 |
| 20260902174037 | 25 | 227 | 3.2 | 11.3 | 0.00 | 0.00 | 0.00 | 50 | 1016.8 |
| 20260902173540 | 25 | 227 | 3.2 | 11.3 | 0.00 | 0.00 | 0.00 | 51 | 1016.9 |
| 20260902173308 | 25 | 227 | 3.2 | 8.0 | 0.00 | 0.00 | 0.00 | 51 | 1016.9 |
| 20260902172534 | 25 | 227 | 3.2 | 8.0 | 0.00 | 0.00 | 0.00 | 53 | 1016.9 |
| 20260902172308 | 24 | 226 | 1.6 | 8.0 | 0.00 | 0.00 | 0.00 | 53 | 1016.9 |
| 20260902171533 | 23 | 226 | 3.2 | 8.0 | 0.00 | 0.00 | 0.00 | 55 | 1016.9 |
| 20260902171033 | 23 | 226 | 4.8 | 8.0 | 0.00 | 0.00 | 0.00 | 55 | 1016.9 |
| 20260902170759 | 23 | 226 | 3.2 | 8.0 | 0.00 | 0.00 | 0.00 | 56 | 1016.8 |
| 20260902170544 | 23 | 226 | 3.2 | 8.0 | 0.00 | 0.00 | 0.00 | 56 | 1016.8 |
| 20260902170030 | 23 | 226 | 3.2 | 6.4 | 0.00 | 0.00 | 0.00 | 59 | 1016.8 |
| 20260902165529 | 22 | 227 | 3.2 | 8.0 | 0.00 | 0.00 | 0.00 | 61 | 1016.9 |
| 20260902165300 | 22 | 227 | 4.8 | 8.0 | 0.00 | 0.00 | 0.00 | 61 | 1016.8 |
| 20260902164524 | 22 | 227 | 3.2 | 9.7 | 0.00 | 0.00 | 0.00 | 63 | 1016.8 |
| 20260902164028 | 22 | 227 | 1.6 | 9.7 | 0.00 | 0.00 | 0.00 | 64 | 1016.8 |
| 20260902163757 | 21 | 227 | 3.2 | 6.4 | 0.00 | 0.00 | 0.00 | 67 | 1016.8 |
| 20260902163026 | 21 | 227 | 3.2 | 8.0 | 0.00 | 0.00 | 0.00 | 68 | 1016.8 |
| 20260902162753 | 21 | 227 | 3.2 | 8.0 | 0.00 | 0.00 | 0.00 | 68 | 1016.8 |
| 20260902162021 | 21 | 227 | 3.2 | 8.0 | 0.00 | 0.00 | 0.00 | 70 | 1016.8 |
| 20260902161522 | 21 | 227 | 3.2 | 8.0 | 0.00 | 0.00 | 0.00 | 72 | 1016.6 |
| 20260902160517 | 20 | 227 | 3.2 | 8.0 | 0.00 | 0.00 | 0.00 | 75 | 1016.6 |
| 20260902160252 | 20 | 226 | 4.8 | 8.0 | 0.00 | 0.00 | 0.00 | 76 | 1016.8 |
| 20260902155749 | 20 | 226 | 3.2 | 8.0 | 0.00 | 0.00 | 0.00 | 77 | 1016.8 |
| 20260902155018 | 20 | 226 | 3.2 | 8.0 | 0.00 | 0.00 | 0.00 | 77 | 1016.8 |
| 20260902154512 | 20 | 227 | 3.2 | 8.0 | 0.00 | 0.00 | 0.00 | 78 | 1016.8 |
| 20260902154014 | 19 | 226 | 3.2 | 8.0 | 0.00 | 0.00 | 0.00 | 78 | 1016.8 |
| 20260902153513 | 19 | 226 | 3.2 | 8.0 | 0.00 | 0.00 | 0.00 | 79 | 1016.8 |
| 20260902153244 | 19 | 226 | 3.2 | 6.4 | 0.00 | 0.00 | 0.00 | 79 | 1016.8 |
| 20260902152512 | 19 | 226 | 3.2 | 8.0 | 0.00 | 0.00 | 0.00 | 78 | 1016.6 |
| 20260902151514 | 19 | 226 | 1.6 | 8.0 | 0.00 | 0.00 | 0.00 | 79 | 1016.5 |
| 20260902151009 | 18 | 226 | 3.2 | 8.0 | 0.00 | 0.00 | 0.00 | 79 | 1016.5 |
| 20260902150010 | 18 | 229 | 3.2 | 8.0 | 0.00 | 0.00 | 0.00 | 79 | 1016.5 |
| 20260902145509 | 18 | 229 | 3.2 | 8.0 | 0.00 | 0.00 | 0.00 | 79 | 1016.6 |
| 20260902145005 | 18 | 229 | 1.6 | 6.4 | 0.00 | 0.00 | 0.00 | 79 | 1016.6 |
| 20260902144737 | 18 | 229 | 1.6 | 8.0 | 0.00 | 0.00 | 0.00 | 79 | 1016.6 |
| 20260902144006 | 18 | 229 | 1.6 | 8.0 | 0.00 | 0.00 | 0.00 | 79 | 1016.4 |
| 20260902143736 | 18 | 229 | 0.0 | 8.0 | 0.00 | 0.00 | 0.00 | 79 | 1016.5 |
| 20260902143001 | 18 | 236 | 0.0 | 6.4 | 0.00 | 0.00 | 0.00 | 79 | 1016.4 |
| 20260902142732 | 18 | 236 | 0.0 | 6.4 | 0.00 | 0.00 | 0.00 | 79 | 1016.4 |
| 20260902141501 | 18 | 236 | 0.0 | 4.8 | 0.00 | 0.00 | 0.00 | 81 | 1016.3 |
| 20260902141228 | 18 | 236 | 0.0 | 3.2 | 0.00 | 0.00 | 0.00 | 81 | 1016.2 |
| 20260902140559 | 17 | 236 | 0.0 | 3.2 | 0.00 | 0.00 | 0.00 | 81 | 1016.2 |
| 20260902135504 | 17 | 236 | 0.0 | 0.0 | 0.00 | 0.00 | 0.00 | 81 | 1016.2 |
| 20260902134454 | 17 | 236 | 0.0 | 0.0 | 0.00 | 0.00 | 0.00 | 82 | 1016.1 |